Location: Winnipeg
(49.8830°N, 97.1670°W)
Time: 20:24:06
(UTC-06:00)

Envisat - Pass Details

Date: 03 December 2022
Orbit: 763 x 765 km, 98.2° (Epoch: 28 January)

Event Time Altitude Azimuth Distance (km) Brightness Sun altitude
Rises 04:59:16 0° 13° (NNE) 3,246 6.4 -29.4°
Reaches altitude 10° 05:01:35 10° 13° (NNE) 2,315 5.6 -29.0°
Enters shadow 05:04:14 32° 11° (N) 1,307 4.2 -28.6°
